Wind_Speed
6 6 7 9 11 12 14 15 16 17 18 19 21 23 24 25 27 28 29 30 31 32 33 34 35 36 37 38 39 40 42 42 42 42 42 42 42 41 41 41 41 41 41 41 41 40 40 40 41 42 43 44 45 46 47 48 48 48 48 47 47 47 47 47 48 48 49 51 53 55 57 58 59 60 62 64 66 67 69 71 73 75 76 77 77 78
6 7 8 10 12 13 14 16 17 18 19 20 21 23 25 26 27 28 30 31 32 33 33 34 35 36 37 38 39 40 42 42 42 43 42 42 43 43 42 42 42 42 42 42 42 41 41 41 41 42 43 44 45 46 48 49 50 50 49 48 48 48 48 48 49 49 49 51 53 55 57 58 59 61 63 65 67 68 70 71 73 74 76 77 77 79
7 8 10 12 13 14 15 17 18 19 20 21 22 24 25 27 28 29 30 32 33 34 34 34 36 37 37 38 39 40 42 42 42 43 43 43 44 44 43 42 42 42 42 42 42 42 41 41 42 43 43 44 46 47 48 50 51 51 50 49 49 49 49 49 50 50 51 51 53 55 56 58 60 61 63 65 67 69 70 71 73 74 75 77 78 79
9 11 11 13 14 15 17 18 19 20 21 22 24 25 26 28 29 30 31 33 33 34 35 35 35 37 39 37 38 40 42 42 42 43 44 44 44 44 44 43 43 43 43 43 43 42 42 42 42 42 43 44 45 47 49 50 51 52 51 50 50 50 50 50 51 51 51 52 53 55 56 58 60 62 64 66 68 69 70 71 72 74 75 76 77 79
11 12 13 13 15 16 18 19 20 21 22 24 25 26 28 29 30 31 32 33 34 34 36 37 35 36 40 38 37 41 42 42 43 43 44 45 44 45 45 44 44 43 43 43 43 42 42 41 42 42 43 44 46 47 49 50 51 52 52 51 51 51 51 51 52 52 52 53 53 55 56 58 60 62 64 66 68 69 70 71 72 73 74 76 77 78
12 13 14 15 16 17 18 20 21 22 23 25 26 27 29 30 31 32 33 33 34 35 36 38 37 35 39 41 39 41 42 42 43 44 45 45 45 46 45 44 44 44 43 43 43 42 42 42 42 42 43 44 46 47 49 50 52 52 52 52 52 51 52 52 53 53 54 54 54 55 57 59 61 63 64 65 66 68 69 70 71 72 74 75 76 78
14 14 15 16 17 18 19 21 22 23 25 26 27 29 30 31 32 33 34 34 35 36 36 38 40 38 38 41 41 42 43 42 42 44 45 45 45 46 46 45 44 44 43 43 43 42 42 42 42 43 43 44 46 48 49 51 52 52 52 52 52 52 52 52 53 53 54 54 55 56 58 60 61 62 63 63 64 66 68 69 70 72 74 75 76 78
15 16 16 18 19 20 21 22 23 25 26 27 28 30 31 32 33 34 35 36 35 36 37 38 41 41 39 40 43 43 44 43 42 44 45 46 46 46 46 45 44 44 43 43 42 42 42 42 42 43 44 45 46 48 49 51 51 52 52 52 52 52 52 52 53 53 54 55 56 57 59 59 60 60 61 62 63 65 67 68 70 72 73 74 76 78
18 18 18 19 21 21 23 24 25 26 27 28 30 31 32 33 34 35 36 37 37 37 38 38 40 42 40 41 44 45 45 45 44 44 46 46 46 46 46 45 44 44 43 43 42 41 41 42 42 43 44 45 47 48 50 51 51 52 52 51 51 52 52 53 54 54 55 56 57 58 59 60 60 60 60 61 62 64 66 68 69 71 73 74 76 78
19 20 20 21 22 23 24 25 26 27 28 29 31 32 33 34 35 36 36 37 38 37 38 39 40 42 42 42 46 47 46 46 46 46 47 47 46 46 46 45 44 44 43 43 42 41 40 41 42 43 44 45 47 48 50 51 51 51 51 51 51 51 52 53 54 55 56 57 58 59 60 61 62 62 62 61 62 63 65 67 69 71 72 73 75 77
22 22 23 23 24 25 26 27 27 29 30 31 32 33 34 35 35 37 37 38 39 38 39 40 41 43 44 44 46 47 47 47 47 47 48 48 47 46 45 44 44 44 43 42 41 40 40 40 41 43 44 45 47 48 50 51 51 51 50 50 50 51 52 53 54 56 57 58 59 61 61 62 63 64 63 63 63 63 64 66 68 70 72 73 74 76
24 25 25 25 26 27 27 28 29 30 31 32 34 35 35 36 37 37 37 39 40 40 40 42 42 43 45 46 46 47 48 48 48 48 48 48 47 45 44 44 43 44 43 42 41 40 39 40 41 42 43 45 46 48 50 50 50 50 50 50 50 50 52 53 55 57 58 60 61 63 63 63 64 65 65 64 63 63 64 65 67 69 71 73 74 76
27 27 27 27 27 28 29 30 31 32 33 34 35 37 37 38 39 38 39 40 42 42 42 43 43 43 45 47 47 47 48 49 49 49 48 47 46 45 45 44 44 44 43 42 41 40 39 39 40 42 43 44 46 48 49 50 50 50 50 50 50 51 52 54 56 58 60 61 63 64 65 65 64 65 66 65 64 64 64 65 67 69 70 72 74 75
28 28 28 28 29 29 30 31 32 33 34 36 37 38 39 40 41 41 42 42 43 44 44 44 44 43 45 48 48 48 48 49 50 50 48 48 47 46 45 45 44 43 43 43 41 40 39 39 39 41 42 44 45 47 49 50 51 50 50 51 51 52 54 56 58 60 62 63 65 66 67 66 65 65 66 66 65 64 64 65 67 69 71 72 74 75
29 29 30 30 30 31 31 32 34 35 36 37 38 39 41 41 42 43 43 43 44 45 44 45 45 44 45 48 49 48 48 50 51 50 49 48 47 47 46 45 44 43 43 43 41 40 39 39 39 40 42 43 44 46 48 50 51 51 51 52 53 54 55 57 60 63 64 65 67 68 68 67 66 65 66 66 66 65 65 66 67 69 71 73 74 76
30 31 31 32 32 32 32 33 35 37 38 38 39 40 41 42 43 43 44 44 45 45 45 45 46 44 45 47 49 49 50 51 52 51 49 48 47 47 47 45 44 42 42 43 42 40 39 39 39 40 41 42 43 45 47 49 50 51 52 53 54 55 56 57 61 64 66 67 68 69 69 69 67 66 66 67 66 66 65 66 67 69 72 73 75 76
31 32 32 33 33 34 34 34 36 38 39 40 40 41 42 43 44 44 45 45 46 46 45 46 48 46 44 46 48 50 52 53 53 51 50 49 48 47 47 45 44 42 42 42 42 41 39 39 39 40 40 41 42 44 46 48 50 51 52 53 54 56 57 58 61 64 66 68 70 71 71 70 68 66 66 66 66 66 66 66 67 69 71 73 75 76
33 33 32 33 34 35 35 36 37 39 39 40 41 41 42 43 44 45 47 47 47 48 46 46 49 48 43 44 48 49 52 53 52 51 50 49 48 47 47 45 44 43 41 42 42 41 39 39 39 40 40 41 42 43 45 47 49 51 52 53 55 56 58 60 62 64 66 68 70 72 72 71 69 66 65 65 65 65 66 66 67 69 71 72 74 76
35 34 32 32 34 35 36 37 38 39 40 41 42 42 42 43 45 46 47 49 49 50 49 47 49 48 42 43 48 49 50 51 51 50 49 49 47 47 47 46 44 43 42 41 42 41 40 40 40 40 40 41 42 43 45 47 49 51 53 54 55 57 59 61 63 65 67 69 70 72 72 72 69 66 65 65 64 65 65 66 67 68 70 71 73 75
36 36 34 33 34 36 37 38 39 40 40 42 43 43 43 43 45 46 47 49 49 52 52 49 50 46 39 41 48 48 49 52 51 48 47 48 47 47 48 47 45 44 42 42 42 42 41 40 41 41 41 41 42 43 45 47 49 51 53 55 56 58 60 62 64 66 68 69 70 71 72 71 69 66 65 64 64 64 65 65 67 68 69 70 72 74
37 38 37 35 36 37 38 38 40 40 41 43 44 44 44 44 46 46 47 48 49 52 53 52 52 45 36 41 48 46 46 50 51 48 46 46 46 45 46 47 47 45 43 42 42 42 41 40 41 41 42 42 42 44 46 48 50 52 54 56 57 59 61 62 64 66 68 69 70 71 71 70 68 66 64 64 64 64 65 65 66 67 68 70 71 72
39 39 39 38 37 39 39 39 40 40 42 44 45 46 46 46 47 47 48 49 49 52 53 52 54 47 38 42 48 44 44 49 51 49 46 45 45 44 44 45 46 46 44 42 41 42 41 40 41 42 42 43 43 44 46 48 50 52 54 57 58 60 62 63 65 66 68 69 70 71 70 68 66 65 64 64 64 64 65 65 66 67 68 69 70 71
41 41 41 40 40 41 42 41 42 42 43 45 46 47 48 48 48 48 49 50 50 53 53 52 55 50 42 45 47 44 45 50 52 50 47 45 44 43 42 43 45 45 44 42 40 41 42 41 41 42 43 44 44 45 47 49 51 53 55 57 59 61 63 64 65 67 67 69 70 71 69 66 65 64 63 63 64 64 65 65 65 66 67 68 69 70
43 44 45 44 43 44 44 45 45 45 46 46 47 48 49 50 50 49 50 51 52 52 51 54 59 53 46 47 47 45 47 52 52 49 46 45 43 41 39 40 43 44 43 41 40 41 42 42 42 43 44 44 45 46 48 50 52 53 56 58 60 61 63 64 66 67 67 69 70 70 68 65 63 63 63 63 64 64 64 65 65 65 67 67 68 70
47 48 49 50 49 49 49 50 50 51 50 50 49 49 51 51 51 51 51 52 53 51 51 57 60 55 50 49 47 46 50 53 50 46 44 44 43 40 37 38 42 43 41 39 39 40 42 42 43 43 44 45 47 48 49 51 52 54 56 58 60 62 63 64 66 66 68 69 69 68 66 64 63 62 62 63 64 64 64 64 64 65 66 67 68 69
50 50 51 52 52 52 53 53 54 54 54 53 52 52 52 52 53 53 52 54 54 53 55 59 59 57 55 51 48 49 52 52 49 45 44 44 44 41 37 38 42 42 41 39 38 39 41 42 43 44 45 46 47 48 50 51 53 54 56 58 60 62 63 64 66 67 68 68 68 67 65 64 63 62 63 63 63 64 64 64 64 65 66 67 68 69
52 52 51 51 51 52 52 52 53 54 53 53 52 51 51 53 53 53 54 54 54 55 57 56 57 60 58 53 53 54 53 52 50 47 45 45 44 40 36 38 43 43 41 40 39 39 40 42 43 44 45 46 48 49 50 51 53 55 57 58 59 61 63 64 66 66 67 67 66 65 64 63 63 64 64 63 62 63 64 63 63 64 66 67 68 69
54 53 53 53 52 53 53 53 53 55 55 54 52 51 51 53 54 53 54 54 54 57 58 55 55 59 58 55 56 56 53 52 50 47 46 45 43 39 36 40 43 43 42 41 41 41 41 42 43 44 45 46 47 49 50 51 53 54 56 58 59 60 62 64 65 65 65 65 64 63 63 64 65 66 66 63 61 62 63 63 63 64 66 67 68 69
56 55 55 55 54 54 55 55 56 56 56 55 53 52 52 53 55 54 54 54 54 56 57 55 55 57 57 57 57 55 53 52 50 47 45 43 41 38 38 41 44 43 43 43 43 42 42 42 44 45 46 46 47 48 49 50 52 54 56 57 58 60 62 63 64 64 63 62 62 62 63 64 66 67 66 62 59 61 62 62 62 63 65 67 68 69
58 58 58 59 58 56 56 56 57 57 57 56 54 52 52 53 54 54 53 52 53 54 55 55 56 57 57 58 57 54 51 50 48 45 44 42 41 39 40 43 44 44 44 44 45 44 43 43 45 47 48 47 47 48 49 50 51 54 55 56 57 59 61 62 62 61 60 60 60 61 62 64 65 66 66 61 58 59 61 60 61 63 65 67 68 68
59 59 59 60 59 57 56 56 56 57 57 56 53 50 50 52 53 52 51 50 51 53 54 55 57 57 57 57 56 52 50 49 47 46 45 44 42 42 43 44 43 44 44 45 46 46 46 46 46 48 49 49 48 48 48 49 51 53 54 55 57 58 60 61 60 58 58 58 59 60 62 63 64 66 65 61 57 58 59 60 60 62 64 66 67 68
56 56 56 57 57 55 54 54 54 54 55 53 49 46 48 50 51 50 49 49 50 53 54 56 58 59 57 56 54 51 49 48 47 48 48 46 43 44 45 45 44 44 45 46 47 48 48 48 48 49 50 50 49 48 48 49 50 52 53 54 56 57 59 59 58 56 56 57 58 59 60 62 63 65 64 61 57 56 58 60 60 61 63 65 66 67
52 52 52 53 54 52 50 50 51 51 50 48 45 44 46 46 46 46 47 47 49 52 54 56 58 58 57 56 55 53 50 48 47 49 51 50 48 46 46 46 46 46 46 47 48 49 50 50 50 50 50 50 49 48 48 48 50 51 52 53 55 56 57 57 56 55 55 55 56 58 59 60 62 63 64 61 57 55 57 59 60 61 62 64 66 67
49 49 49 49 50 48 46 46 47 47 46 44 42 41 41 41 43 45 46 46 48 51 53 55 57 57 57 56 56 55 52 49 47 48 51 53 53 51 48 48 48 48 48 50 50 51 52 52 51 51 50 50 49 48 47 48 49 50 51 52 54 55 56 55 54 54 54 54 55 56 57 59 60 62 63 62 57 54 56 59 60 60 61 64 66 66
47 47 46 46 47 47 46 47 47 46 43 40 40 39 38 40 43 46 46 44 45 49 52 54 55 56 56 56 56 56 55 52 49 49 52 55 55 54 52 50 51 51 52 53 54 54 55 55 54 53 51 50 49 48 47 48 48 49 50 51 53 54 54 53 53 53 53 53 54 55 56 58 59 60 62 61 56 53 56 58 59 60 61 63 65 66
45 45 45 46 48 48 48 48 48 48 43 39 40 42 42 44 46 48 48 45 44 48 53 54 56 57 57 57 57 57 58 56 52 51 55 57 55 55 55 54 54 54 54 56 56 56 56 56 55 55 53 51 49 48 47 46 46 48 49 51 52 52 52 51 51 52 52 52 53 54 55 57 58 59 61 59 54 53 56 58 59 61 61 63 64 66
44 45 45 47 48 49 49 48 48 49 45 39 42 47 48 48 49 51 52 47 45 50 54 55 56 58 58 58 58 59 61 60 54 50 54 56 54 54 54 54 54 55 56 58 58 57 57 57 56 56 55 51 48 46 45 44 45 47 49 50 50 51 51 50 50 51 51 52 52 53 54 56 57 58 59 58 54 54 56 57 59 61 62 63 64 65
44 45 46 47 48 48 50 50 50 51 47 43 45 50 53 53 53 54 55 51 48 51 55 55 57 58 58 58 58 58 60 60 53 47 47 50 50 51 52 51 53 56 58 59 59 58 57 57 56 55 52 48 45 43 42 42 43 46 48 49 49 49 49 49 49 50 51 51 52 52 53 55 56 57 58 57 55 54 56 57 59 61 62 63 64 64
45 45 46 48 49 49 51 52 52 52 50 47 48 51 53 55 56 57 58 55 51 53 55 56 57 56 55 55 56 57 59 59 54 47 46 48 50 53 54 54 54 56 57 58 58 57 57 56 53 50 46 43 42 41 41 41 43 45 47 48 48 48 48 49 50 50 51 51 51 52 53 54 56 56 57 57 56 55 55 57 59 61 63 63 63 64
46 46 47 48 49 50 52 52 52 53 51 49 50 52 53 55 56 58 60 58 55 55 57 58 58 56 54 55 56 58 60 62 60 57 55 56 57 57 58 58 57 57 56 56 56 55 55 53 49 44 42 41 41 41 41 41 43 45 46 48 48 47 47 49 50 50 51 51 51 52 53 54 55 56 56 57 56 55 55 56 58 60 62 63 64 64
47 48 48 49 50 51 53 54 54 53 50 50 52 53 55 57 57 58 60 60 59 58 57 58 60 59 59 59 60 60 61 63 64 63 62 62 60 58 57 57 57 56 55 55 54 53 52 50 47 43 42 43 43 43 44 43 44 46 47 47 47 47 47 49 49 50 51 51 52 53 53 54 55 56 57 57 56 55 54 55 57 59 61 62 63 63
49 49 50 52 53 54 55 57 57 54 51 51 54 55 56 58 59 60 61 61 61 60 58 58 60 62 62 61 61 61 60 60 61 62 61 60 59 57 56 55 54 53 53 53 53 52 50 49 48 46 44 44 44 45 45 45 45 46 47 47 47 46 47 49 49 50 51 51 52 53 53 54 55 56 57 57 56 55 53 54 56 58 60 61 62 63
50 52 53 54 55 56 57 58 57 54 53 54 56 56 57 58 60 61 61 60 60 60 59 58 58 60 61 60 59 59 58 57 57 57 57 56 56 55 55 54 53 53 52 52 51 51 50 49 49 49 46 45 45 46 46 46 46 46 48 48 47 47 48 49 50 50 51 51 51 53 53 54 55 56 56 57 56 54 52 52 54 56 59 60 61 62
53 54 54 54 53 54 56 55 53 53 54 56 57 57 57 58 59 60 60 59 58 59 59 58 58 58 60 60 59 58 58 57 56 55 55 55 55 55 54 53 53 53 53 52 52 51 50 49 49 50 49 48 47 47 47 47 47 47 48 49 48 48 49 49 50 51 51 51 51 52 53 54 55 56 56 56 56 54 51 51 52 54 57 59 60 60
54 54 54 54 52 52 53 50 49 52 53 53 54 55 56 57 58 59 59 58 58 58 59 59 58 58 60 60 59 59 59 59 57 57 57 57 57 57 56 55 54 54 54 54 53 52 51 50 49 49 49 49 49 48 48 49 49 49 50 50 50 50 50 50 50 51 51 51 51 52 53 53 54 56 57 56 56 54 51 49 50 52 55 57 58 58
53 52 54 55 54 54 51 47 48 51 50 48 49 51 52 53 54 54 55 55 55 56 56 56 57 57 58 59 59 59 59 60 60 59 58 58 58 58 57 56 55 55 54 54 53 53 52 52 51 49 49 50 51 50 49 49 49 50 50 51 51 50 50 50 50 51 51 50 50 51 52 52 53 55 56 56 55 53 51 49 48 50 52 55 57 57
53 52 54 55 55 55 52 48 49 52 50 48 48 48 49 51 51 52 52 52 53 54 55 56 57 57 57 58 58 58 58 59 61 61 60 59 59 59 58 58 57 56 56 55 54 54 53 53 52 51 50 50 51 51 49 49 49 49 49 50 50 49 49 49 50 50 50 50 50 50 51 52 52 54 55 55 53 53 51 49 47 48 49 52 55 56
55 55 56 56 56 56 54 52 52 52 50 49 51 50 50 51 52 54 55 56 56 57 58 58 59 59 59 59 59 59 59 59 61 62 61 61 61 61 60 60 61 60 59 58 57 56 55 54 54 53 52 51 52 52 51 51 50 49 49 49 49 49 49 49 49 49 50 50 49 50 51 51 52 53 54 54 52 52 51 49 47 46 47 50 53 55
57 58 59 59 59 58 57 57 57 55 52 51 54 56 56 55 56 58 59 60 61 61 61 60 60 60 61 61 61 62 61 61 62 64 64 63 63 63 62 62 62 63 63 63 61 60 59 58 57 56 55 53 53 53 53 52 52 51 50 50 50 50 49 49 49 49 49 49 49 50 51 51 51 52 54 53 51 51 51 49 47 45 44 47 51 54
60 60 62 63 63 62 62 62 63 61 58 56 58 61 62 62 62 62 63 64 64 64 64 63 61 61 61 62 63 64 64 64 64 65 65 65 65 65 65 63 63 63 64 65 64 63 63 62 61 60 59 57 56 55 54 53 52 52 51 51 51 51 50 50 50 50 50 49 49 50 50 51 51 51 53 52 51 51 51 50 48 45 43 44 49 52
62 62 63 65 65 65 64 65 65 66 64 63 63 64 64 65 66 66 66 67 67 67 68 67 66 65 64 64 65 67 68 67 66 67 67 67 66 66 67 66 65 64 64 65 65 64 64 64 64 63 63 61 59 56 54 53 53 52 52 52 52 52 51 51 50 50 50 49 49 49 50 50 50 50 51 51 50 50 50 50 49 46 42 42 45 49
Wind_Direction
29 15 11 10 5 4 3 0 359 357 356 355 353 353 353 353 354 354 354 355 355 356 356 355 353 354 355 355 355 355 355 356 355 354 354 353 353 352 349 348 347 347 346 343 341 338 335 333 331 331 331 331 332 334 335 336 336 336 334 331 329 327 325 324 324 324 326 329 331 332 332 333 335 336 337 338 339 339 340 341 342 342 343 344 345 345
8 1 8 7 1 359 357 354 353 352 351 350 349 349 349 350 350 351 352 352 352 353 354 354 351 352 355 354 354 354 354 355 354 353 352 352 351 351 349 348 347 346 346 345 342 338 336 334 332 332 332 332 333 335 336 336 337 336 335 333 330 328 326 325 324 324 325 328 330 331 332 333 334 335 336 337 337 338 339 340 340 341 342 343 345 345
351 355 5 3 357 354 352 350 347 346 346 346 345 346 346 346 347 348 349 349 349 350 351 352 351 349 353 354 352 352 352 352 352 352 351 351 350 350 349 348 347 346 346 345 342 339 336 334 333 333 333 333 334 335 336 336 336 336 335 334 332 330 329 327 326 325 326 328 330 331 331 332 332 333 334 334 335 335 337 338 339 340 342 343 344 345
350 354 359 356 351 348 347 346 343 343 343 344 344 344 343 343 344 345 346 346 346 347 347 350 352 348 349 353 351 350 351 351 350 351 351 350 349 349 348 347 347 346 345 345 343 340 337 335 333 333 333 333 334 335 335 335 335 335 335 334 333 332 332 330 329 328 328 328 329 330 330 330 331 332 332 332 333 334 335 337 339 340 342 343 344 344
350 349 351 348 345 344 343 341 340 340 341 342 342 341 341 340 341 342 343 343 343 344 345 346 351 349 346 349 350 349 350 349 349 350 350 349 349 348 347 347 346 346 345 344 342 339 337 335 333 333 333 333 334 335 335 335 334 334 334 334 334 334 333 333 332 331 330 330 330 330 329 330 330 331 331 332 333 334 335 337 338 340 341 342 343 344
345 342 342 341 341 340 338 336 336 337 339 340 339 339 339 339 339 339 339 340 341 342 343 342 346 349 345 346 349 348 348 349 348 348 348 348 348 347 347 346 346 346 345 343 342 339 336 335 334 333 333 334 334 334 335 335 334 334 334 335 335 334 334 334 333 333 332 331 331 330 330 330 330 331 332 333 333 334 334 336 338 339 340 342 343 344
339 337 335 334 334 333 331 331 333 335 337 337 337 337 337 337 337 338 337 338 339 340 341 340 341 346 346 344 346 347 347 348 347 347 347 347 346 346 346 346 345 345 344 342 341 339 336 334 333 333 333 334 334 334 335 335 334 334 334 335 335 335 335 335 335 335 334 334 333 332 331 331 331 331 332 333 334 334 334 335 337 338 340 341 343 344
332 331 330 329 328 327 327 329 331 333 334 334 335 334 335 335 334 336 336 336 338 338 339 340 339 342 345 343 344 346 345 346 346 346 346 346 345 345 345 345 345 344 343 342 340 338 336 334 333 332 333 333 333 334 335 335 335 335 335 335 335 336 335 336 336 337 337 338 337 336 335 334 333 333 333 333 334 334 334 335 336 338 339 341 343 344
327 326 325 324 324 325 326 327 328 330 331 331 332 331 332 332 332 334 334 334 336 336 337 339 338 339 343 342 342 344 344 344 345 345 345 345 344 344 344 344 344 343 342 341 340 337 335 333 332 332 332 332 333 334 335 335 336 336 335 335 335 336 336 336 337 338 338 338 338 338 337 335 335 334 334 334 334 334 334 335 336 337 339 341 343 344
324 322 321 320 320 322 323 324 326 326 327 328 328 328 329 329 330 331 332 332 333 335 336 337 337 337 340 340 340 342 342 343 344 344 343 343 343 343 343 343 343 342 341 341 339 337 334 332 331 331 331 331 332 333 334 335 336 336 336 335 335 336 337 337 338 339 339 339 339 339 338 337 336 335 334 335 335 335 335 335 336 337 338 340 342 344
323 321 319 317 318 320 320 321 323 323 324 324 324 326 326 326 328 329 330 330 331 333 334 335 336 336 337 339 340 340 341 341 342 343 343 342 342 342 342 342 341 340 340 340 338 335 332 331 330 330 330 331 331 332 333 334 336 336 336 335 336 337 338 339 340 341 341 341 341 341 340 339 337 336 335 335 335 335 335 336 336 337 338 340 342 344
321 319 317 316 316 317 317 318 319 320 321 321 321 322 323 323 325 326 327 327 328 330 333 334 335 336 337 337 338 339 339 340 341 342 342 341 341 341 341 341 340 339 339 339 337 334 332 330 329 329 329 330 331 331 332 333 335 335 335 335 336 338 339 340 340 340 341 341 342 342 342 340 339 338 337 336 336 335 336 336 337 337 338 340 342 344
319 317 315 314 313 314 315 316 317 317 318 319 319 320 321 321 322 322 323 325 326 329 332 333 334 336 337 335 336 338 338 338 339 340 341 340 339 339 339 339 339 338 338 338 336 333 331 329 329 328 329 329 330 330 331 332 334 334 334 335 335 337 338 339 339 340 340 341 342 342 342 341 340 339 338 337 337 336 337 337 338 338 339 340 342 344
317 315 313 312 312 312 313 314 315 316 317 317 318 319 320 320 320 320 321 323 325 327 331 333 333 336 336 333 334 335 336 337 338 339 339 338 337 337 337 338 338 337 337 336 335 333 331 329 328 328 328 328 328 329 329 330 332 333 333 333 334 335 336 338 338 339 340 341 341 341 341 342 341 340 339 338 338 338 339 339 338 339 339 341 342 344
315 313 311 310 310 311 311 313 313 314 315 316 317 318 318 320 320 321 321 322 323 324 328 330 332 336 335 332 332 333 333 335 336 337 337 336 336 335 335 336 337 336 335 335 334 332 330 328 327 327 326 327 327 327 327 328 330 331 332 332 333 334 335 336 337 338 338 339 339 339 341 343 343 342 341 340 340 340 340 340 340 340 340 342 343 343
313 311 310 309 309 309 310 312 312 312 313 314 315 316 317 319 319 320 320 321 322 322 325 327 330 335 334 330 330 331 331 333 335 335 335 335 334 333 333 334 335 335 334 333 333 331 329 327 326 325 325 325 325 325 326 326 328 330 331 332 333 333 334 334 334 335 336 337 337 338 340 343 344 344 343 341 341 341 341 341 341 341 341 342 343 344
311 310 309 308 307 307 308 310 311 311 312 313 315 316 317 318 318 319 319 320 321 321 324 326 326 332 333 328 329 330 330 332 334 334 333 333 332 331 332 333 334 334 333 332 331 330 327 325 324 324 324 324 324 324 324 325 326 328 329 330 331 331 332 332 332 333 334 335 336 337 340 343 345 345 344 342 342 342 342 342 341 341 342 343 343 344
309 309 309 308 307 307 307 308 309 311 312 313 315 316 317 317 317 318 318 319 320 320 323 325 326 332 333 327 328 329 328 330 332 332 331 331 331 330 330 331 332 333 332 330 329 328 325 324 323 323 323 323 322 322 323 323 324 326 327 328 328 329 329 330 331 332 334 335 336 337 340 343 346 347 345 343 342 343 343 343 342 342 342 343 343 344
306 306 307 306 306 306 307 308 309 311 312 313 315 316 317 317 317 318 318 319 319 319 322 324 325 332 332 326 327 327 325 326 328 329 329 328 329 328 328 329 330 332 331 328 327 326 324 322 321 321 321 321 321 321 321 321 322 323 324 325 326 326 327 329 331 332 334 335 336 337 339 342 346 347 346 343 342 343 344 344 343 343 343 343 343 344
305 304 304 305 305 305 308 309 310 312 312 313 314 315 317 317 316 317 317 318 318 318 321 322 324 331 331 325 326 325 322 323 325 327 327 326 327 327 326 327 329 331 331 327 325 324 323 321 319 320 320 320 320 320 320 320 321 322 323 324 325 326 327 329 331 332 334 334 335 337 339 341 345 348 346 343 342 343 345 345 344 343 343 343 344 345
303 303 303 305 306 306 309 310 310 312 312 312 313 314 317 316 315 316 316 316 317 316 320 320 322 330 332 323 325 324 321 321 322 325 327 325 326 326 326 326 327 329 330 326 324 323 321 319 318 319 319 319 320 320 320 319 320 321 322 323 325 326 328 329 331 332 333 334 336 337 338 339 344 347 346 343 342 343 345 346 345 344 343 343 344 345
303 302 302 304 306 307 310 311 311 311 311 312 312 314 315 314 313 314 313 315 315 314 318 317 317 326 329 322 322 322 318 318 320 324 326 325 325 326 326 324 324 327 328 325 322 321 320 318 317 317 318 318 320 320 319 319 319 320 322 323 325 326 328 330 331 332 334 335 335 336 337 339 343 347 347 344 343 343 345 346 346 345 344 343 344 345
303 303 302 303 305 307 309 310 310 310 310 311 311 313 313 312 312 312 312 313 313 313 316 313 312 321 325 319 320 319 315 316 319 323 324 324 325 326 325 322 321 325 327 324 321 319 319 318 316 316 317 318 319 320 319 319 319 320 321 323 325 326 329 331 332 333 334 334 335 335 337 338 341 345 347 346 344 343 345 346 346 345 344 344 344 344
304 304 303 302 303 304 307 308 308 309 309 309 310 311 310 309 309 309 310 310 310 312 314 308 310 319 321 317 318 316 313 317 321 323 323 323 324 326 324 320 319 323 325 324 321 318 318 318 316 316 316 317 319 320 320 319 319 320 321 323 325 327 330 331 332 333 333 333 334 335 337 338 340 343 346 346 345 344 345 346 347 346 345 345 344 344
305 306 306 305 304 302 302 303 304 305 306 308 309 310 309 308 308 308 309 308 308 311 310 308 311 316 317 317 317 313 313 318 322 321 321 322 323 325 324 318 317 322 325 323 321 318 317 317 316 315 316 317 319 320 319 319 319 320 321 323 326 328 330 332 332 332 332 333 334 336 337 338 339 341 344 346 345 345 345 347 348 347 346 346 345 344
305 305 306 306 306 306 304 303 303 303 304 306 307 308 307 307 306 307 307 307 308 308 307 310 312 312 315 316 314 312 314 318 320 319 319 320 322 325 324 317 316 321 323 323 321 318 316 316 315 315 316 317 318 319 319 319 319 320 322 323 326 329 331 331 331 331 332 333 335 337 338 339 339 340 341 343 345 345 345 346 348 348 347 347 345 344
303 303 303 303 304 305 305 304 303 303 303 304 305 306 306 305 305 306 306 307 308 306 307 311 310 310 315 315 312 314 316 317 318 318 318 319 321 324 322 314 316 320 321 321 319 317 316 315 314 314 315 316 317 318 318 318 320 321 322 324 327 329 330 330 330 331 332 334 336 338 340 340 340 340 340 341 344 345 345 346 348 349 348 348 346 345
301 301 301 300 301 302 302 302 302 302 303 304 306 307 306 305 305 305 306 307 307 307 309 311 308 310 314 313 313 318 318 316 318 319 319 320 321 322 318 313 316 319 319 319 318 317 316 314 314 313 314 315 316 316 317 318 320 322 323 325 328 329 330 330 330 332 333 335 338 340 341 342 342 341 341 341 343 345 345 345 348 349 349 348 347 346
300 300 300 299 300 301 302 302 303 304 305 307 309 310 308 307 306 306 307 308 308 308 310 310 308 311 313 312 316 319 317 317 320 320 320 321 321 320 315 313 315 317 317 318 317 317 317 314 313 312 313 315 315 315 317 319 321 322 323 326 328 329 329 330 331 332 334 336 339 341 342 343 343 342 342 342 344 345 345 345 347 349 349 349 348 346
301 301 301 300 300 301 303 303 304 304 305 307 311 312 310 308 308 308 309 309 308 308 310 309 309 311 313 313 316 318 317 319 320 320 320 320 319 317 313 311 313 315 316 316 316 317 317 314 313 312 312 314 315 315 317 319 320 321 323 326 328 329 330 331 332 333 335 337 339 341 343 344 344 343 343 344 344 345 345 345 347 349 349 349 348 346
304 304 304 303 302 303 304 304 305 305 306 309 312 311 309 308 307 307 308 308 308 308 309 308 309 311 313 313 315 317 318 320 320 319 318 317 316 313 311 310 312 313 314 314 314 315 315 314 313 312 312 313 314 315 316 318 319 320 323 326 328 329 330 332 333 334 336 337 339 340 342 343 343 343 343 344 344 345 346 346 347 349 349 349 348 346
307 307 307 307 306 306 307 306 306 307 308 311 312 309 306 306 305 305 307 308 308 309 309 308 309 312 314 314 316 318 319 320 320 318 316 315 313 311 310 310 311 311 311 312 313 312 312 312 311 311 312 312 313 314 315 317 318 320 323 327 328 329 330 332 334 334 336 337 338 339 341 342 342 342 343 344 344 345 347 348 348 348 348 349 348 346
310 310 310 309 309 309 309 308 308 308 309 312 312 310 308 307 306 305 306 308 309 309 309 309 311 313 315 316 317 318 318 319 319 319 315 313 312 310 310 310 310 310 310 310 311 311 310 310 310 310 310 310 311 312 313 315 317 320 324 327 328 329 330 333 334 334 335 336 336 338 340 340 341 342 343 344 343 344 348 349 349 348 348 349 348 346
311 311 312 312 311 312 311 310 309 309 311 313 315 314 313 309 307 306 306 310 311 309 309 310 311 313 314 315 315 315 316 317 319 319 315 311 311 310 310 310 309 308 310 310 310 311 311 310 310 309 309 309 309 309 311 314 317 320 325 327 327 328 330 332 334 333 334 335 336 337 338 339 340 342 343 343 342 345 348 350 350 349 348 349 348 347
314 314 314 314 313 313 313 312 310 309 312 315 314 312 311 309 308 305 306 311 311 308 308 309 310 311 312 312 312 311 312 314 317 317 313 310 310 310 309 309 308 309 310 310 311 312 311 311 311 310 308 308 307 307 310 313 317 322 326 327 326 327 330 332 333 332 333 334 335 336 337 337 339 341 343 343 343 345 349 351 350 349 349 349 348 347
317 316 315 313 313 314 313 313 311 310 313 315 311 308 307 307 306 304 305 310 310 306 306 308 307 308 309 309 309 309 309 311 315 315 312 310 309 308 308 308 308 309 310 310 311 312 312 312 312 311 309 307 306 308 311 314 319 324 326 325 325 326 329 331 331 331 332 333 334 335 336 336 338 340 342 342 343 346 349 350 351 350 349 348 348 347
318 317 315 314 314 315 313 312 311 310 312 314 311 309 309 309 307 306 308 313 313 306 305 307 307 307 308 308 308 308 308 311 314 314 312 310 309 308 308 309 310 310 311 310 311 312 312 312 312 312 311 308 307 309 312 316 321 325 325 323 323 326 329 330 329 330 332 333 334 335 335 335 337 339 341 341 343 346 348 350 351 350 349 348 347 346
319 318 317 316 317 316 314 314 314 314 317 318 313 311 311 310 310 311 312 316 316 310 309 310 310 309 309 308 308 308 310 313 315 315 313 311 311 310 311 312 313 313 313 314 314 314 315 314 314 313 312 309 309 312 314 318 322 323 322 321 322 325 328 328 328 329 331 332 333 334 335 335 336 339 340 341 343 345 348 350 350 350 348 347 347 346
319 318 318 317 317 316 316 316 317 319 322 321 314 311 310 309 311 311 311 313 315 313 313 314 314 314 313 312 311 311 312 314 315 316 315 313 313 312 312 313 313 313 313 314 315 316 317 317 316 314 313 312 313 315 316 318 321 320 319 319 321 324 326 326 326 328 330 331 333 334 335 335 336 338 339 340 342 344 347 349 349 349 348 347 346 345
320 319 319 318 317 316 316 316 317 320 323 321 316 313 312 311 312 312 311 312 312 312 312 314 315 316 316 316 316 315 314 314 314 314 314 313 313 313 312 311 311 310 310 310 310 312 314 315 314 314 315 317 318 318 318 318 319 318 317 317 319 322 324 324 325 326 328 330 332 333 335 335 335 337 338 339 341 343 345 347 348 348 347 346 345 344
323 321 320 318 316 316 315 315 316 320 322 319 316 314 314 314 314 313 313 315 316 315 315 315 315 315 316 316 316 315 315 314 314 315 315 314 313 312 311 310 309 309 308 308 308 309 311 313 314 315 317 319 320 319 318 317 316 315 314 315 318 321 322 322 323 325 326 328 330 332 334 334 334 335 337 338 339 341 343 345 347 347 346 346 345 344
328 325 324 321 318 318 318 317 319 322 321 318 316 315 315 316 315 314 316 318 318 318 318 317 315 314 315 316 316 316 315 314 314 314 315 314 313 312 311 309 308 306 306 306 308 310 312 315 316 316 316 317 317 316 316 315 313 312 312 313 316 319 321 321 322 324 325 327 328 330 332 333 334 334 335 337 338 339 341 344 345 345 345 345 344 343
330 329 330 329 326 325 324 323 324 324 322 319 318 317 318 318 317 317 319 320 320 320 320 319 318 316 316 316 316 316 316 315 314 314 313 313 313 312 312 310 309 307 306 305 307 309 310 313 315 315 314 313 313 313 312 311 310 309 310 311 313 317 319 320 321 323 325 325 326 328 330 332 332 333 333 335 337 338 339 342 344 344 343 343 343 342
333 332 334 335 331 329 329 328 326 325 322 321 321 321 321 321 320 321 322 322 322 322 322 321 321 320 319 318 318 317 317 316 315 314 313 312 312 311 311 311 310 310 309 308 308 308 308 309 310 311 311 310 310 309 309 308 308 307 308 308 310 314 317 318 320 322 323 324 325 326 328 330 330 331 331 333 335 336 338 341 343 342 342 342 342 341
334 333 333 334 332 332 333 332 328 327 325 322 322 323 322 321 321 322 324 324 324 324 323 322 322 321 320 320 319 319 319 318 317 316 315 313 312 311 310 310 310 310 310 309 309 308 307 306 306 306 307 307 307 306 306 306 305 305 305 305 307 311 314 316 318 320 321 323 323 323 325 327 328 329 329 330 333 334 336 340 342 341 340 340 341 340
332 331 330 331 330 331 334 332 329 330 330 327 326 326 325 325 325 326 327 328 329 329 328 327 326 324 323 321 320 319 318 318 317 316 315 314 312 311 309 308 308 308 308 308 308 307 306 305 304 304 304 304 305 304 303 303 303 303 303 303 305 309 312 314 316 318 319 321 321 321 323 325 326 326 327 328 330 331 333 338 340 339 339 339 340 340
329 328 327 328 328 328 330 330 328 330 331 329 329 329 328 328 328 327 328 328 329 329 330 330 329 329 328 326 324 321 319 318 316 314 313 313 312 310 309 308 306 306 305 306 306 305 304 304 303 302 302 303 303 303 301 301 302 303 304 304 306 309 311 312 313 315 317 318 319 319 320 322 323 323 324 326 327 328 330 334 337 337 337 338 338 339
326 325 324 324 323 323 326 327 326 327 329 328 327 327 326 326 325 325 326 326 327 327 328 329 329 329 329 328 327 325 323 320 318 315 313 312 311 310 309 308 307 305 304 303 303 302 301 301 300 300 300 301 302 302 301 301 303 304 305 306 308 310 310 310 311 313 315 316 316 316 317 319 321 321 322 324 325 326 328 331 333 334 335 336 337 337
324 323 321 320 319 319 322 323 322 322 323 324 323 323 323 323 323 323 324 324 325 326 326 327 327 326 326 325 324 323 323 322 319 317 314 313 312 310 309 308 306 305 304 302 302 301 300 299 299 299 300 301 302 302 301 301 303 305 307 308 308 308 308 308 309 311 313 313 314 314 315 317 319 319 320 322 323 324 325 327 329 331 333 336 336 336
323 321 320 319 318 318 319 320 319 319 319 320 320 320 321 321 321 321 321 321 322 322 322 323 323 322 322 321 320 319 319 320 318 316 314 313 312 310 309 307 306 304 303 302 301 300 300 300 300 301 301 302 302 302 301 301 302 305 307 307 306 306 306 306 308 309 310 311 312 312 313 315 316 317 318 320 321 322 322 323 325 327 331 335 335 335
322 321 320 320 319 319 320 320 319 318 319 319 319 318 318 318 318 318 319 319 319 319 319 320 320 319 319 319 318 317 316 317 316 315 313 312 310 309 308 308 306 305 304 302 301 301 300 300 301 302 303 303 303 302 300 299 301 303 305 305 304 304 305 305 306 308 309 310 310 311 312 313 314 315 316 318 319 320 320 320 321 324 328 332 333 333
Height
5838 5837 5836 5835 5833 5832 5830 5829 5827 5825 5824 5822 5821 5819 5817 5815 5812 5810 5807 5804 5802 5799 5797 5794 5792 5789 5786 5783 5780 5777 5773 5770 5767 5765 5762 5759 5756 5753 5749 5746 5743 5739 5735 5731 5727 5723 5719 5716 5712 5708 5704 5700 5696 5692 5687 5683 5678 5674 5670 5665 5661 5656 5652 5647 5642 5637 5631 5626 5620 5614 5608 5602 5595 5589 5582 5575 5569 5563 5557 5549 5541 5534 5526 5518 5509 5500
5839 5837 5836 5834 5833 5831 5830 5828 5827 5825 5823 5822 5820 5818 5816 5813 5811 5809 5806 5803 5800 5798 5795 5793 5790 5787 5784 5781 5778 5775 5772 5769 5766 5763 5760 5757 5754 5751 5747 5744 5740 5736 5732 5728 5724 5720 5717 5713 5709 5705 5701 5697 5692 5688 5683 5679 5674 5670 5666 5662 5657 5652 5647 5643 5638 5632 5627 5621 5616 5610 5603 5597 5591 5584 5577 5571 5564 5558 5551 5545 5537 5529 5521 5512 5503 5495
5839 5837 5835 5834 5832 5831 5829 5828 5826 5824 5822 5821 5819 5816 5814 5812 5810 5807 5804 5802 5799 5796 5794 5791 5788 5784 5782 5779 5776 5774 5770 5768 5765 5762 5759 5755 5751 5748 5745 5742 5738 5734 5730 5726 5722 5718 5714 5710 5706 5702 5698 5693 5689 5684 5680 5675 5671 5667 5663 5658 5653 5648 5643 5638 5633 5628 5622 5617 5612 5606 5600 5593 5587 5580 5573 5566 5560 5553 5546 5540 5532 5524 5515 5506 5497 5489
5838 5836 5834 5833 5832 5830 5828 5827 5825 5823 5821 5819 5817 5815 5813 5811 5808 5805 5803 5800 5797 5795 5792 5789 5786 5782 5779 5778 5774 5772 5769 5766 5763 5760 5756 5753 5749 5746 5743 5739 5735 5731 5727 5723 5719 5715 5711 5707 5703 5699 5695 5690 5685 5681 5676 5672 5668 5664 5660 5655 5650 5645 5640 5635 5629 5624 5619 5613 5608 5602 5596 5590 5583 5577 5570 5562 5555 5548 5541 5534 5526 5517 5509 5500 5493 5485
5837 5835 5834 5832 5831 5829 5828 5826 5824 5822 5820 5818 5816 5814 5812 5809 5807 5804 5802 5799 5796 5793 5790 5787 5785 5781 5777 5776 5773 5769 5767 5764 5760 5757 5753 5750 5747 5743 5740 5736 5732 5728 5724 5720 5716 5712 5709 5704 5700 5696 5691 5687 5682 5678 5674 5669 5665 5661 5656 5651 5646 5641 5636 5631 5626 5620 5615 5609 5604 5598 5592 5586 5579 5572 5566 5558 5550 5542 5535 5527 5519 5512 5504 5497 5489 5481
5836 5835 5833 5832 5830 5828 5827 5825 5823 5821 5819 5817 5815 5812 5810 5807 5805 5802 5800 5797 5794 5791 5788 5785 5783 5781 5776 5773 5771 5767 5764 5761 5758 5754 5751 5747 5744 5740 5737 5733 5729 5725 5721 5717 5713 5709 5705 5701 5697 5692 5688 5684 5679 5675 5671 5666 5662 5657 5652 5647 5642 5637 5632 5627 5622 5617 5611 5605 5600 5594 5587 5581 5574 5566 5559 5553 5545 5537 5530 5523 5515 5508 5500 5493 5485 5477
5836 5834 5833 5831 5829 5828 5826 5824 5822 5820 5817 5815 5813 5811 5808 5806 5803 5800 5798 5795 5792 5789 5786 5783 5780 5779 5775 5770 5768 5765 5761 5758 5755 5752 5749 5745 5741 5738 5734 5730 5726 5722 5718 5714 5710 5706 5702 5698 5693 5689 5685 5681 5676 5672 5668 5663 5658 5653 5649 5644 5638 5634 5629 5623 5618 5613 5607 5601 5596 5590 5583 5577 5570 5562 5555 5548 5541 5534 5527 5520 5512 5504 5496 5488 5480 5472
5835 5833 5832 5830 5828 5827 5825 5822 5820 5818 5816 5813 5811 5809 5806 5804 5801 5798 5795 5793 5790 5787 5784 5781 5777 5775 5773 5769 5766 5763 5759 5756 5752 5749 5746 5742 5738 5735 5731 5727 5723 5719 5715 5711 5707 5703 5699 5694 5690 5686 5682 5678 5673 5669 5664 5659 5655 5650 5645 5640 5635 5630 5625 5620 5615 5609 5604 5598 5592 5586 5580 5573 5566 5559 5552 5544 5537 5530 5523 5516 5508 5500 5491 5483 5475 5467
5834 5832 5831 5829 5827 5825 5823 5821 5818 5816 5814 5812 5809 5807 5804 5802 5799 5796 5793 5790 5787 5784 5781 5779 5775 5773 5771 5766 5763 5761 5757 5753 5750 5746 5742 5739 5735 5732 5727 5724 5720 5716 5712 5708 5704 5700 5695 5691 5687 5683 5679 5675 5670 5665 5661 5656 5651 5647 5642 5637 5632 5627 5622 5616 5611 5606 5600 5595 5589 5583 5576 5569 5562 5555 5548 5540 5533 5526 5519 5511 5504 5496 5487 5479 5471 5463
5833 5831 5829 5827 5825 5823 5821 5819 5817 5814 5812 5810 5807 5805 5802 5800 5797 5794 5791 5787 5785 5782 5779 5776 5773 5770 5768 5764 5760 5758 5755 5751 5747 5743 5739 5735 5732 5728 5724 5720 5716 5713 5709 5705 5700 5696 5692 5688 5684 5680 5676 5671 5667 5662 5657 5653 5648 5643 5639 5634 5629 5624 5618 5613 5608 5602 5597 5592 5586 5579 5572 5565 5558 5551 5544 5536 5529 5522 5515 5507 5500 5492 5484 5476 5468 5460
5832 5830 5828 5826 5823 5821 5819 5817 5815 5812 5810 5808 5805 5803 5800 5797 5794 5791 5788 5785 5782 5780 5776 5773 5770 5767 5765 5762 5757 5754 5751 5748 5745 5741 5736 5731 5728 5724 5721 5717 5713 5709 5705 5701 5697 5692 5688 5684 5680 5676 5672 5668 5663 5658 5654 5649 5645 5640 5636 5631 5626 5621 5615 5610 5604 5599 5594 5588 5582 5575 5569 5562 5555 5548 5540 5532 5525 5518 5511 5504 5496 5488 5481 5473 5465 5457
5830 5828 5826 5824 5822 5819 5817 5815 5812 5810 5807 5805 5802 5800 5797 5794 5792 5789 5786 5783 5780 5777 5774 5770 5767 5764 5760 5758 5755 5751 5747 5745 5742 5738 5734 5729 5725 5721 5717 5714 5710 5706 5702 5698 5693 5689 5685 5681 5677 5672 5668 5664 5659 5655 5650 5646 5642 5637 5633 5628 5623 5617 5612 5607 5601 5596 5590 5584 5578 5572 5565 5558 5551 5544 5537 5529 5522 5515 5508 5501 5493 5486 5478 5470 5462 5454
5828 5826 5824 5822 5820 5817 5815 5812 5810 5807 5805 5802 5799 5796 5794 5791 5789 5786 5784 5781 5777 5774 5771 5767 5764 5761 5757 5754 5751 5748 5744 5741 5738 5734 5731 5727 5723 5719 5714 5710 5706 5702 5698 5694 5690 5685 5681 5677 5673 5669 5664 5660 5656 5651 5647 5643 5638 5634 5629 5624 5619 5614 5609 5603 5598 5592 5587 5581 5574 5568 5561 5555 5547 5540 5533 5526 5519 5512 5504 5497 5490 5483 5475 5467 5460 5452
5826 5824 5822 5820 5817 5815 5813 5810 5807 5804 5802 5799 5796 5793 5790 5787 5785 5782 5780 5777 5774 5771 5768 5764 5760 5757 5755 5750 5747 5745 5741 5737 5734 5731 5727 5724 5720 5716 5711 5707 5703 5699 5694 5690 5686 5682 5677 5673 5669 5665 5661 5656 5652 5648 5643 5639 5635 5631 5626 5621 5616 5610 5605 5600 5594 5588 5583 5577 5571 5564 5558 5551 5544 5536 5529 5522 5515 5507 5500 5493 5486 5479 5472 5464 5456 5448
5824 5822 5820 5817 5815 5812 5810 5807 5804 5801 5799 5796 5793 5790 5787 5784 5780 5778 5775 5773 5771 5769 5766 5762 5758 5754 5750 5747 5743 5741 5737 5734 5730 5727 5723 5719 5715 5712 5708 5704 5700 5695 5691 5686 5682 5678 5673 5669 5665 5661 5657 5653 5649 5645 5640 5636 5631 5627 5622 5617 5612 5607 5601 5596 5590 5584 5579 5573 5567 5561 5554 5547 5540 5532 5525 5517 5510 5503 5496 5489 5482 5475 5468 5460 5452 5445
5822 5820 5817 5815 5812 5810 5807 5804 5801 5798 5795 5793 5790 5787 5783 5780 5777 5774 5772 5769 5766 5766 5764 5761 5757 5752 5747 5742 5739 5736 5733 5730 5726 5723 5719 5715 5711 5707 5703 5700 5696 5691 5687 5682 5678 5674 5669 5665 5661 5657 5654 5650 5645 5641 5637 5632 5628 5623 5618 5614 5608 5603 5598 5592 5586 5580 5575 5569 5563 5557 5551 5543 5536 5528 5521 5513 5506 5499 5492 5485 5478 5471 5464 5456 5448 5441
5820 5817 5815 5812 5809 5807 5804 5802 5798 5795 5792 5789 5786 5783 5780 5777 5773 5770 5767 5765 5762 5761 5761 5758 5754 5751 5745 5739 5735 5730 5726 5724 5721 5718 5714 5711 5707 5703 5699 5695 5691 5687 5683 5678 5674 5670 5666 5661 5657 5654 5650 5646 5642 5638 5633 5629 5624 5620 5615 5610 5605 5600 5594 5589 5583 5577 5571 5565 5558 5552 5546 5539 5532 5524 5516 5509 5501 5494 5488 5481 5474 5467 5459 5452 5445 5437
5817 5815 5812 5809 5806 5804 5801 5799 5796 5792 5789 5786 5782 5779 5776 5773 5770 5766 5763 5760 5757 5755 5756 5755 5751 5746 5740 5736 5733 5727 5722 5719 5716 5713 5710 5706 5703 5698 5694 5691 5687 5683 5678 5674 5670 5665 5661 5657 5653 5650 5646 5642 5639 5634 5630 5625 5621 5616 5612 5607 5602 5596 5591 5585 5579 5573 5567 5561 5554 5548 5542 5535 5528 5520 5512 5505 5498 5491 5484 5476 5469 5462 5455 5448 5441 5433
5814 5813 5810 5807 5804 5801 5798 5795 5792 5789 5786 5782 5779 5775 5772 5769 5765 5762 5758 5755 5752 5749 5749 5751 5749 5744 5734 5730 5729 5724 5719 5717 5715 5711 5706 5702 5699 5694 5690 5687 5682 5679 5674 5670 5666 5661 5657 5653 5650 5646 5643 5639 5635 5631 5627 5622 5617 5613 5608 5603 5598 5593 5587 5581 5575 5569 5563 5557 5550 5544 5537 5530 5523 5516 5509 5502 5494 5487 5480 5473 5466 5458 5451 5444 5437 5429
5810 5809 5807 5804 5801 5798 5795 5792 5789 5786 5782 5779 5775 5771 5769 5765 5762 5759 5755 5752 5747 5743 5742 5742 5746 5745 5732 5724 5724 5719 5714 5712 5711 5709 5704 5698 5695 5690 5685 5682 5678 5675 5670 5666 5662 5657 5653 5650 5646 5642 5639 5635 5631 5627 5623 5618 5614 5609 5604 5600 5594 5589 5583 5577 5571 5565 5559 5553 5546 5540 5533 5526 5519 5512 5505 5498 5491 5484 5477 5469 5462 5455 5447 5440 5433 5425
5807 5805 5803 5801 5798 5794 5792 5788 5785 5783 5779 5775 5772 5767 5764 5761 5757 5755 5752 5749 5744 5739 5736 5733 5737 5743 5733 5722 5720 5715 5709 5706 5703 5702 5700 5695 5690 5686 5680 5676 5672 5670 5666 5662 5658 5654 5650 5646 5642 5638 5635 5631 5628 5623 5619 5615 5610 5605 5600 5595 5590 5585 5579 5574 5568 5562 5555 5549 5543 5536 5529 5523 5516 5509 5502 5495 5488 5481 5473 5466 5458 5451 5444 5436 5429 5422
5803 5801 5800 5798 5795 5791 5789 5785 5782 5779 5776 5772 5768 5764 5761 5756 5753 5750 5747 5746 5741 5736 5733 5727 5728 5738 5733 5720 5716 5711 5705 5701 5697 5695 5694 5690 5686 5682 5677 5672 5668 5665 5662 5657 5654 5650 5646 5642 5638 5634 5631 5627 5624 5620 5615 5611 5606 5601 5596 5591 5586 5580 5575 5570 5564 5558 5552 5545 5539 5532 5526 5519 5512 5506 5499 5492 5485 5477 5470 5462 5455 5447 5440 5433 5425 5418
5800 5797 5796 5795 5792 5788 5785 5781 5778 5776 5773 5769 5765 5761 5757 5752 5748 5744 5740 5740 5736 5732 5730 5723 5721 5730 5729 5717 5713 5708 5701 5697 5693 5689 5688 5685 5681 5677 5673 5669 5664 5661 5657 5653 5649 5645 5641 5638 5634 5630 5627 5623 5620 5616 5611 5607 5602 5597 5592 5587 5582 5576 5571 5565 5560 5554 5548 5541 5535 5528 5522 5515 5508 5502 5496 5489 5481 5474 5466 5459 5451 5444 5436 5429 5422 5415
5796 5793 5791 5790 5789 5786 5782 5778 5774 5771 5769 5765 5762 5757 5752 5747 5743 5740 5736 5733 5731 5729 5725 5716 5712 5720 5722 5715 5709 5703 5697 5695 5690 5684 5681 5678 5676 5673 5669 5665 5661 5657 5653 5649 5645 5641 5637 5634 5630 5626 5622 5619 5615 5611 5607 5602 5597 5593 5588 5583 5577 5572 5567 5561 5556 5550 5544 5538 5531 5525 5518 5511 5504 5498 5492 5485 5478 5470 5463 5455 5448 5441 5433 5426 5419 5412
5792 5789 5785 5782 5782 5781 5779 5775 5770 5767 5764 5760 5757 5753 5747 5742 5737 5735 5732 5727 5725 5724 5720 5711 5705 5710 5714 5711 5705 5699 5693 5691 5688 5682 5676 5673 5670 5668 5665 5661 5656 5653 5649 5645 5641 5637 5633 5629 5626 5622 5618 5614 5611 5607 5602 5597 5593 5588 5583 5578 5573 5568 5563 5557 5552 5546 5540 5534 5527 5521 5514 5507 5501 5495 5488 5482 5475 5467 5459 5452 5445 5437 5430 5423 5415 5409
5788 5785 5781 5776 5774 5772 5770 5768 5764 5761 5758 5755 5752 5748 5743 5738 5733 5729 5726 5722 5719 5716 5715 5709 5700 5700 5707 5706 5700 5696 5690 5688 5685 5680 5674 5670 5665 5662 5660 5656 5651 5648 5644 5641 5637 5633 5629 5625 5621 5617 5614 5610 5606 5602 5598 5593 5588 5584 5579 5574 5569 5564 5559 5553 5547 5542 5536 5530 5523 5517 5510 5503 5497 5491 5485 5478 5471 5464 5456 5449 5442 5434 5427 5420 5413 5406
5783 5781 5778 5773 5770 5767 5764 5761 5757 5753 5753 5751 5748 5745 5740 5733 5729 5726 5721 5718 5714 5708 5709 5709 5697 5692 5698 5698 5693 5692 5688 5684 5681 5676 5671 5667 5662 5659 5655 5650 5646 5643 5639 5635 5631 5628 5624 5620 5616 5613 5609 5605 5601 5597 5593 5588 5584 5580 5575 5570 5565 5560 5555 5549 5543 5538 5532 5526 5520 5513 5506 5500 5494 5487 5481 5475 5468 5461 5453 5446 5439 5432 5424 5417 5410 5404
5778 5777 5774 5770 5768 5764 5760 5757 5752 5748 5747 5745 5743 5741 5736 5729 5725 5722 5718 5714 5709 5702 5701 5703 5695 5688 5690 5689 5686 5685 5681 5677 5675 5671 5666 5662 5658 5654 5650 5645 5641 5638 5634 5630 5626 5623 5620 5616 5612 5608 5604 5601 5597 5592 5588 5584 5580 5575 5570 5566 5561 5556 5551 5545 5540 5534 5528 5522 5516 5510 5503 5497 5490 5484 5478 5471 5465 5458 5450 5443 5436 5429 5422 5415 5408 5401
5772 5771 5768 5765 5765 5762 5756 5752 5748 5744 5742 5740 5738 5735 5730 5725 5719 5716 5714 5709 5704 5698 5695 5694 5690 5687 5685 5681 5680 5680 5674 5670 5668 5664 5659 5656 5652 5648 5644 5639 5637 5633 5630 5626 5622 5619 5615 5612 5608 5604 5600 5596 5592 5587 5583 5579 5575 5571 5566 5561 5557 5552 5547 5542 5536 5530 5524 5518 5512 5506 5500 5494 5487 5481 5474 5468 5462 5455 5447 5440 5434 5427 5420 5413 5406 5399
5765 5764 5761 5758 5759 5759 5753 5747 5744 5740 5737 5736 5734 5727 5722 5718 5713 5709 5707 5704 5698 5694 5691 5687 5684 5684 5680 5675 5673 5673 5669 5665 5662 5658 5654 5651 5646 5642 5638 5634 5632 5628 5625 5622 5618 5615 5611 5607 5604 5599 5595 5591 5587 5582 5578 5575 5570 5566 5562 5557 5553 5548 5543 5538 5532 5527 5521 5515 5509 5503 5497 5491 5484 5478 5471 5465 5459 5452 5445 5438 5431 5424 5417 5410 5403 5396
5758 5756 5753 5749 5750 5752 5748 5742 5739 5735 5732 5730 5727 5720 5715 5712 5707 5703 5701 5698 5693 5690 5687 5681 5677 5677 5676 5671 5668 5667 5664 5660 5656 5652 5649 5646 5642 5637 5632 5629 5627 5624 5620 5617 5613 5609 5606 5602 5598 5594 5590 5586 5582 5578 5574 5570 5566 5562 5557 5553 5549 5544 5540 5534 5529 5523 5517 5512 5506 5500 5494 5488 5482 5475 5469 5462 5456 5449 5442 5435 5428 5422 5415 5408 5401 5394
5752 5749 5747 5742 5741 5744 5741 5735 5733 5731 5728 5726 5720 5712 5709 5707 5702 5698 5695 5693 5688 5684 5681 5676 5671 5670 5669 5666 5663 5662 5660 5657 5652 5647 5643 5641 5638 5633 5627 5624 5621 5619 5615 5612 5608 5604 5600 5597 5593 5589 5585 5581 5577 5573 5569 5565 5561 5557 5553 5550 5545 5541 5536 5530 5525 5519 5514 5508 5503 5497 5491 5485 5479 5473 5466 5460 5453 5447 5440 5433 5426 5420 5413 5406 5399 5392
5747 5743 5741 5736 5734 5736 5733 5728 5726 5725 5724 5722 5713 5705 5703 5700 5695 5692 5691 5689 5685 5680 5675 5670 5666 5664 5662 5659 5656 5655 5655 5653 5649 5644 5637 5632 5631 5628 5624 5619 5616 5613 5610 5606 5603 5599 5595 5591 5587 5583 5579 5575 5572 5568 5564 5561 5557 5553 5549 5546 5541 5537 5532 5526 5521 5516 5511 5505 5500 5494 5488 5482 5477 5470 5464 5457 5451 5444 5437 5430 5424 5417 5411 5404 5397 5391
5742 5738 5735 5731 5728 5728 5727 5722 5720 5719 5719 5716 5707 5699 5696 5694 5689 5687 5687 5686 5682 5676 5671 5667 5662 5659 5657 5654 5650 5647 5646 5646 5645 5640 5632 5625 5622 5621 5620 5616 5611 5608 5605 5602 5598 5594 5590 5586 5582 5578 5574 5570 5566 5563 5559 5556 5552 5548 5545 5541 5537 5532 5527 5523 5517 5512 5507 5502 5496 5491 5485 5479 5474 5467 5461 5454 5448 5441 5435 5428 5421 5415 5409 5402 5395 5389
5738 5734 5731 5727 5723 5722 5720 5716 5713 5713 5715 5713 5704 5696 5692 5689 5685 5681 5682 5685 5680 5671 5667 5664 5659 5656 5653 5650 5646 5641 5639 5639 5640 5637 5629 5621 5616 5613 5612 5610 5606 5603 5600 5596 5592 5589 5584 5580 5576 5572 5568 5564 5560 5557 5554 5551 5547 5544 5541 5537 5532 5528 5523 5518 5514 5508 5503 5498 5493 5488 5482 5476 5470 5464 5458 5451 5445 5438 5432 5425 5419 5413 5407 5400 5394 5388
5734 5731 5727 5723 5719 5717 5714 5711 5707 5706 5709 5710 5701 5691 5687 5684 5679 5674 5676 5682 5678 5668 5662 5659 5655 5651 5648 5644 5640 5636 5632 5632 5635 5632 5623 5615 5612 5608 5604 5602 5599 5596 5593 5589 5585 5582 5578 5573 5570 5565 5562 5558 5554 5551 5549 5545 5542 5539 5536 5532 5528 5523 5519 5514 5510 5505 5500 5495 5490 5484 5479 5473 5467 5461 5455 5449 5442 5436 5429 5422 5416 5410 5404 5398 5392 5386
5731 5727 5723 5719 5716 5712 5708 5706 5704 5700 5703 5705 5695 5685 5681 5678 5673 5668 5668 5675 5674 5664 5657 5654 5650 5646 5643 5639 5636 5631 5626 5625 5628 5627 5619 5611 5607 5603 5599 5596 5592 5589 5586 5582 5578 5575 5570 5567 5563 5559 5555 5552 5548 5546 5543 5540 5537 5534 5531 5527 5523 5519 5515 5510 5506 5501 5496 5491 5486 5481 5475 5470 5464 5458 5452 5446 5439 5433 5426 5420 5413 5408 5402 5396 5390 5384
5727 5723 5719 5715 5712 5708 5702 5699 5698 5695 5696 5697 5688 5680 5675 5672 5669 5664 5662 5666 5667 5659 5652 5649 5645 5640 5637 5634 5630 5626 5620 5618 5620 5621 5615 5608 5603 5597 5594 5592 5587 5582 5578 5575 5572 5569 5565 5560 5557 5552 5549 5546 5542 5540 5538 5535 5532 5529 5526 5522 5519 5515 5510 5506 5502 5497 5493 5488 5483 5477 5472 5466 5460 5454 5449 5443 5436 5430 5423 5417 5411 5405 5399 5394 5388 5382
5724 5720 5716 5712 5708 5704 5699 5695 5693 5690 5690 5689 5682 5676 5671 5666 5664 5660 5656 5659 5660 5654 5648 5644 5639 5634 5631 5627 5623 5619 5614 5610 5611 5613 5610 5604 5599 5593 5588 5587 5583 5578 5573 5568 5565 5562 5559 5555 5551 5547 5543 5540 5537 5535 5533 5530 5527 5524 5521 5518 5514 5510 5506 5502 5498 5493 5489 5484 5479 5474 5468 5462 5456 5451 5445 5439 5433 5426 5420 5414 5408 5402 5397 5391 5385 5380
5720 5716 5713 5709 5704 5700 5695 5692 5690 5688 5686 5681 5676 5671 5666 5661 5658 5653 5649 5650 5652 5649 5644 5638 5632 5628 5625 5622 5618 5614 5608 5602 5600 5602 5601 5598 5594 5589 5583 5579 5576 5572 5568 5564 5560 5556 5554 5549 5545 5542 5538 5534 5532 5530 5527 5525 5522 5519 5516 5513 5509 5506 5502 5498 5493 5489 5484 5480 5475 5470 5465 5459 5453 5447 5442 5436 5430 5423 5417 5411 5406 5400 5394 5389 5383 5377
5716 5712 5709 5704 5700 5696 5692 5687 5686 5685 5682 5675 5669 5664 5660 5656 5653 5648 5644 5643 5641 5640 5639 5634 5627 5622 5620 5617 5612 5609 5604 5598 5592 5590 5589 5587 5585 5583 5578 5573 5569 5564 5560 5557 5554 5551 5548 5544 5539 5536 5532 5529 5526 5524 5521 5519 5517 5514 5511 5508 5504 5501 5497 5493 5489 5485 5480 5476 5471 5466 5461 5455 5449 5444 5438 5433 5427 5421 5415 5409 5403 5398 5392 5387 5381 5375
5711 5708 5704 5700 5695 5692 5689 5683 5680 5679 5677 5671 5665 5660 5656 5651 5646 5643 5642 5639 5634 5630 5630 5629 5623 5617 5614 5612 5608 5603 5599 5595 5589 5584 5582 5578 5575 5573 5570 5567 5564 5560 5555 5551 5547 5544 5542 5539 5534 5530 5527 5523 5521 5519 5516 5514 5512 5508 5505 5502 5498 5496 5492 5488 5484 5481 5476 5471 5467 5462 5457 5451 5445 5440 5435 5429 5424 5418 5412 5406 5401 5395 5390 5384 5379 5373
5706 5703 5700 5696 5691 5687 5684 5680 5675 5672 5669 5665 5660 5656 5652 5647 5641 5637 5636 5635 5630 5624 5621 5620 5617 5610 5606 5605 5603 5598 5594 5590 5586 5581 5577 5573 5569 5565 5562 5559 5555 5553 5549 5545 5542 5538 5536 5533 5530 5526 5521 5518 5515 5513 5510 5508 5506 5503 5499 5496 5493 5490 5487 5483 5479 5476 5471 5467 5462 5457 5452 5447 5442 5436 5431 5426 5421 5415 5409 5404 5398 5393 5387 5382 5377 5371
5704 5699 5695 5693 5688 5684 5680 5677 5673 5669 5664 5659 5655 5651 5648 5643 5637 5632 5630 5628 5625 5620 5615 5612 5610 5604 5598 5595 5594 5591 5587 5584 5580 5576 5572 5568 5564 5559 5556 5552 5547 5544 5541 5538 5535 5532 5529 5527 5524 5521 5517 5512 5509 5507 5504 5501 5499 5497 5493 5490 5487 5484 5481 5478 5474 5470 5466 5462 5457 5453 5448 5443 5438 5433 5428 5423 5418 5412 5407 5401 5396 5391 5385 5380 5375 5369
5702 5697 5693 5690 5687 5682 5678 5674 5670 5668 5663 5657 5651 5647 5644 5640 5635 5629 5625 5622 5619 5615 5610 5607 5604 5600 5593 5588 5585 5582 5579 5575 5572 5569 5564 5561 5557 5553 5549 5545 5541 5537 5534 5531 5528 5525 5522 5520 5517 5515 5511 5507 5502 5500 5498 5495 5492 5490 5487 5484 5481 5478 5475 5472 5469 5465 5461 5457 5453 5448 5444 5439 5434 5429 5424 5419 5414 5409 5404 5399 5394 5388 5383 5378 5373 5367
5700 5695 5691 5687 5683 5680 5677 5672 5666 5664 5661 5655 5650 5645 5640 5636 5632 5627 5622 5618 5613 5609 5605 5601 5597 5594 5589 5584 5579 5576 5572 5567 5564 5561 5558 5553 5550 5546 5542 5539 5535 5531 5527 5523 5521 5518 5515 5512 5509 5507 5504 5501 5496 5493 5492 5489 5485 5483 5481 5478 5475 5472 5469 5466 5463 5460 5456 5452 5448 5443 5439 5435 5430 5425 5420 5415 5411 5406 5401 5396 5391 5386 5381 5376 5370 5365
5695 5691 5687 5684 5679 5674 5673 5669 5665 5661 5657 5651 5647 5643 5637 5632 5628 5624 5619 5615 5610 5605 5600 5595 5590 5587 5583 5578 5573 5570 5567 5562 5556 5553 5551 5547 5542 5539 5535 5531 5528 5524 5520 5516 5513 5510 5507 5504 5501 5499 5497 5493 5489 5487 5484 5482 5478 5476 5474 5471 5469 5466 5463 5460 5457 5454 5451 5447 5443 5439 5434 5430 5426 5421 5416 5412 5407 5402 5397 5393 5388 5383 5379 5373 5368 5363
5690 5686 5682 5680 5676 5671 5667 5664 5661 5659 5655 5647 5641 5638 5634 5629 5624 5618 5614 5609 5605 5601 5596 5590 5584 5579 5576 5572 5567 5563 5560 5556 5550 5545 5542 5539 5535 5531 5527 5524 5520 5517 5513 5509 5505 5502 5499 5496 5493 5490 5488 5485 5482 5479 5477 5474 5471 5468 5466 5464 5462 5460 5457 5454 5451 5448 5445 5441 5437 5433 5429 5425 5421 5416 5412 5408 5403 5398 5393 5389 5385 5380 5376 5371 5366 5360
5684 5680 5676 5673 5671 5667 5663 5657 5653 5652 5652 5647 5638 5631 5627 5623 5618 5613 5608 5602 5598 5594 5590 5586 5580 5574 5568 5564 5559 5555 5553 5550 5544 5538 5534 5531 5527 5523 5519 5516 5512 5509 5505 5501 5498 5495 5491 5487 5484 5482 5480 5477 5475 5472 5470 5466 5463 5460 5459 5457 5455 5453 5450 5448 5445 5442 5439 5435 5432 5428 5424 5420 5416 5411 5407 5403 5398 5394 5389 5385 5381 5377 5373 5368 5363 5358
5679 5675 5670 5665 5662 5660 5657 5651 5645 5641 5641 5640 5634 5626 5619 5615 5611 5607 5602 5596 5591 5587 5582 5579 5576 5572 5566 5559 5552 5547 5544 5543 5539 5533 5528 5524 5520 5516 5511 5508 5505 5502 5498 5494 5490 5488 5484 5480 5476 5474 5472 5470 5467 5465 5462 5459 5455 5453 5451 5450 5448 5446 5443 5441 5438 5436 5432 5429 5426 5422 5418 5415 5411 5407 5402 5398 5394 5389 5385 5381 5377 5373 5370 5365 5361 5356
5674 5669 5664 5659 5655 5652 5650 5645 5639 5634 5631 5630 5626 5620 5614 5608 5603 5599 5594 5589 5585 5580 5575 5570 5566 5563 5560 5556 5549 5541 5535 5532 5530 5526 5522 5518 5515 5510 5505 5501 5497 5493 5490 5487 5483 5480 5477 5473 5469 5466 5463 5461 5459 5456 5454 5451 5448 5446 5444 5443 5441 5439 5436 5434 5431 5429 5426 5423 5420 5416 5413 5409 5406 5402 5398 5394 5390 5385 5381 5377 5373 5369 5366 5362 5358 5354